Tracking 35334 objects as of 13-Sep-2026
HD Live streaming from Space Station
objects crossing your sky now

STARLINK-35002

Track STARLINK-35002 now!
10-day predictions
STARLINK-35002 is classified as:


NORAD ID: 65291
Int'l Code: 2025-184U
Launch date: August 22, 2025
Source: United States (US)
Launch site: AIR FORCE WESTERN TEST RANGE (AFWTR)
Your satellite tracking list
Your tracking list is empty




NASA's NSSDC Master Catalog

Two Line Element Set (TLE):
1 65291U 25184U   26255.88567189  .00011582  00000-0  36046-3 0  9994
2 65291  97.2850 303.9045 0000420  79.3077 280.8213 15.33452897 59554
Source of the keplerian elements: AFSPC